Погода в Бабаойо

Эквадор     1°47′48″S   79°31′43″W
темп.,
°C
ветер,
м/с
пор.,
м/с
влажн.,
%
обл.,
%
осадки,
мм/ч
давл.,
гПа
погр.,
м
25 января, пн
пн2501:00+23юв129799 7.9 101389
04:00+23юв1298100 2.4 1011100
07:00+23вюв1198100 4.3 101369
10:00+24вюв1296100 1.4 1014138
13:00+27зсз0185100 4.4 1012554
16:00+28зсз0182100 4.7 1009507
19:00+24вюв019499 11.3 101125
22:00+23юз1498100 8.1 1013194
26 января, вт
вт2601:00+23ююв0298100 15.6 1013126
04:00+23всв1199100 1.2 101280
07:00+23всв1198100 1.6 101359
10:00+27ююв128496 0.1 1013523
13:00+28ююз227879 2.1 1011816
16:00+28зюз018588 7.6 1009290
19:00+25св119294 11.4 101124
22:00+24всв1294100 5.0 101353
27 января, ср
ср2701:00+23ю1397100 10.8 1013130
04:00+23ююв119798 1.3 101266
07:00+23вюв119699 1.8 101336
10:00+27зсз118199 0.0 1014608
13:00+31сз126299 0.1 10111094
16:00+29сз127798 1.1 1008587
19:00+25ссв119299 4.7 101124
22:00+24з1595100 9.3 1014141
28 января, чт
чт2801:00+23юв0198100 14.7 101379
04:00+23юв1299100 10.7 1012154
07:00+22вюв1399100 19.6 1014205
10:00+22юв1398100 1.4 1014186
13:00+30ю117197 1.4 1011725
16:00+30сз1164100 0.3 10091115
19:00+25ю019255 3.3 101124
22:00+24ююз129444 6.0 101354
29 января, пт
пт2901:00+23ююв129853 8.3 101393
04:00+23в119891 0.7 1011110
07:00+23всв139995 2.4 1012154
10:00+23вюв1197100 0.7 1013125
13:00+27ююз127988 0.7 1010509
16:00+29ю22708 1.3 1008814
19:00+25ююз129417 6.0 101046
22:00+24ю1295100 3.1 101370